Location: Derby
(52.9213°N, 1.4761°W)
Time: 01:41:34
(UTC+01:00)

Vanguard 2 Rocket - Pass Details

Date: 21 May 2025
Orbit: 554 x 3293 km, 32.9° (Epoch: 12 June)

Event Time Altitude Azimuth Distance (km) Brightness Sun altitude
Rises 23:34:08 0° 226° (SW) 7,233 11.3 -14.2°
Reaches altitude 10° 23:40:14 10° 217° (SW) 6,058 10.8 -14.5°
Maximum altitude 23:54:03 28° 169° (SSE) 3,967 9.5 -15.2°
Drops below altitude 10° 00:04:06 10° 117° (ESE) 4,359 10.0 -15.6°
Sets 00:07:35 0° 106° (ESE) 4,976 10.4 -15.7°
